Voltar ao catálogo

SAUDICOMSAT 6

AtivoComunicaçõesSSO
NORAD 31121·PAYLOAD·🇸🇦 Saudi Arabia

Lançado Apr 17, 2007 de Baikonur Cosmodrome

Loading…

Próximas Passagens (próximas 24 horas)

TLE

AtualizadoSource: Space-Track

Época: Sep 14, 2026, 03:54 UTC

1 31121U 07012E   26257.16297344  .00000456  00000-0  96492-4 0  9995
2 31121  98.4212 226.3847 0072706  50.4652 310.2945 14.62630323 33192

Acompanhe SAUDICOMSAT 6 em tempo real com AllMySat

Download on the App Store